User: anonymous   Login
Location: Chanteloup
(48.8560°N, 2.7390°E)
Time: 07:02:43
(UTC+00:00)
Language:

Okean-O - Orbit

View from above orbital plane
View from above orbital plane
View from above satellite
View from above satellite

Ground track
Ground track

The orbit data is extracted from the following two-line orbital elements,

1 25860U 99039A   22027.53289087  .00000174  00000-0  32325-4 0  9997
2 25860  98.1591  66.0434 0001713 106.2822 253.8576 14.76816934212451
Epoch (UTC): 27 January 2022 12:47:21
Eccentricity: 0.0001713
inclination: 98.1591°
perigee height: 638 km
apogee height: 640 km
right ascension of ascending node: 66.0434°
argument of perigee: 106.2822°
revolutions per day: 14.76816934
mean anomaly at epoch: 253.8576°
orbit number at epoch: 21245

The dashed part of the orbit path shows where the satellite is in the earth's shadow,  

DLR